This is the latest recevied weather packets stored in our database for station/object KN4MGS. If no packets are shown the sender has not sent any weather packets the latest 10 day(s).
| Time | Temp. | Humidity | Pressure | Rain* | Wind** | Luminosity | Snow |
|---|---|---|---|---|---|---|---|
| 1777661789 | 19.44° C | 54% | 1018 hPa | 0 mm | - | 384 W/m² | - |
| 1777661484 | 18.89° C | 53% | 1017.8 hPa | 0 mm | - | 370 W/m² | - |
| 1777661181 | 20° C | 51% | 1018 hPa | 0 mm | - | 297 W/m² | - |
| 1777660876 | 18.89° C | 57% | 1018 hPa | 0 mm | - | 545 W/m² | - |
| 1777660573 | 17.78° C | 54% | 1018.2 hPa | 0 mm | - | 376 W/m² | - |
| 1777660269 | 18.33° C | 53% | 1018.1 hPa | 0 mm | - | 428 W/m² | - |
| 1777659966 | 17.78° C | 55% | 1018 hPa | 0 mm | - | 331 W/m² | - |
| 1777659663 | 17.78° C | 52% | 1017.9 hPa | 0 mm | - | 321 W/m² | - |
| 1777659361 | 18.89° C | 53% | 1018.1 hPa | 0 mm | - | 290 W/m² | - |
| 1777659057 | 18.89° C | 51% | 1018.1 hPa | 0 mm | - | 334 W/m² | - |
| 1777658755 | 18.89° C | 53% | 1018.1 hPa | 0 mm | - | 301 W/m² | - |
| 1777658450 | 18.33° C | 55% | 1018.3 hPa | 0 mm | - | 220 W/m² | - |
| 1777658148 | 18.33° C | 54% | 1018.6 hPa | 0 mm | - | 199 W/m² | - |
| 1777657844 | 18.89° C | 53% | 1018.5 hPa | 0 mm | - | 301 W/m² | - |
| 1777657541 | 18.89° C | 53% | 1018.5 hPa | 0 mm | - | 308 W/m² | - |
| 1777657239 | 18.33° C | 54% | 1018.5 hPa | 0 mm | - | 256 W/m² | - |
| 1777656936 | 18.33° C | 53% | 1018.5 hPa | 0 mm | - | 236 W/m² | - |
| 1777656633 | 17.78° C | 54% | 1018.7 hPa | 0 mm | - | 369 W/m² | - |
| 1777656328 | 17.78° C | 55% | 1018.6 hPa | 0 mm | - | 217 W/m² | - |
| 1777656024 | 17.78° C | 53% | 1018.5 hPa | 0 mm | - | 189 W/m² | - |
| 1777655720 | 18.33° C | 52% | 1018.7 hPa | 0 mm | - | 250 W/m² | - |
| 1777655417 | 19.44° C | 50% | 1018.6 hPa | 0 mm | - | 344 W/m² | - |
| 1777655114 | 18.33° C | 52% | 1018.8 hPa | 0 mm | - | 376 W/m² | - |
| 1777654811 | 19.44° C | 51% | 1018.6 hPa | 0 mm | - | 509 W/m² | - |
| 1777654509 | 18.89° C | 52% | 1018.6 hPa | 0 mm | - | 532 W/m² | - |
* Rain latest hour (hover to see other rain measurements)
** Current wind speed in m/s (hover to see current wind gust speed)